Location: Wellington
(41.3000°S, 174.8000°E)
Time: 21:22:02
(UTC+13:00)

ISS - Pass Details

Date: 06 August 2021
Orbit: 417 x 422 km, 51.6° (Epoch: 27 September)

Event Time Altitude Azimuth Distance (km) Brightness Sun altitude
Exits shadow 04:40:51 10° 131° (SE) 1,523 -0.3 -30.7°
Drops below altitude 10° 04:40:53 10° 130° (SE) 1,533 -0.3 -30.7°
Enters shadow 05:38:16 -69° 258° (WSW) 12,355 3.6 -20.0°
Maximum altitude 06:16:12 41° 151° (SSE) 643 -2.7 -12.9°
